Location: Complexul Astronomic Baia Mare
(47.6577°N, 23.5639°E)
Time: 13:26:26
(UTC+03:00)

ISS - Pass Details

Date: 08 June 2017
Orbit: 401 x 408 km, 51.6° (Epoch: 23 June)

Event Time Altitude Azimuth Distance (km) Brightness Sun altitude
Rises 22:43:36 0° 290° (WNW) 2,339 1.1 -10.7°
Reaches altitude 10° 22:45:51 10° 279° (W) 1,474 -0.3 -10.9°
Maximum altitude 22:48:44 28° 218° (SW) 798 -2.5 -11.2°
Enters shadow 22:50:36 17° 168° (SSE) 1,127 -2.1 -11.4°
